Location: Elstree
(51.6403°N, 0.2969°W)
Time: 14:13:39
(UTC+00:00)

Cosmos 1500 - Pass Details

Date: 03 March 2021
Orbit: 499 x 517 km, 82.5° (Epoch: 12 April)

Event Time Altitude Azimuth Distance (km) Brightness Sun altitude
Rises 18:48:05 0° 173° (S) 2,582 6.6 -10.5°
Reaches altitude 10° 18:50:15 10° 167° (SSE) 1,702 5.7 -10.9°
Maximum altitude 18:53:48 44° 94° (E) 700 3.4 -11.4°
Drops below altitude 10° 18:57:24 10° 22° (NNE) 1,718 5.7 -12.0°
Sets 18:59:35 0° 16° (NNE) 2,609 6.7 -12.3°
